Вернуться в каталог

STARLINK-33936

АктивенСвязьVLEO
NORAD 64005·PAYLOAD·🇺🇸 United States

Запущен May 14, 2025 с Cape Canaveral Space Force Station

Loading…

Ближайшие Пролёты (ближайшие 24 часа)

TLE

СвежийSource: CelesTrak SupGP

Эпоха: Sep 14, 2026, 20:59 UTC

1 64005C 25101M   26257.87479167  .00024941  00000+0  90335-3 0  2574
2 64005  43.0037   9.4279 0001429 272.2517 317.6447 15.27566602    10

Отслеживайте STARLINK-33936 в реальном времени с AllMySat

Download on the App Store